Temperature
12 12 12 12 12 12 12 12 12 12 12 12 12 12 12 12 12 12 12 12 11 12 12 11 11 11 11 11 11 11 12 11 11 11 11 11 11 11 11 11 11 10 10
11 12 12 12 12 12 12 12 12 12 12 12 11 11 11 11 11 11 11 11 11 11 11 11 11 11 11 11 11 11 11 11 11 11 11 11 11 10 10 10 10 10 10
11 11 11 11 11 11 11 11 11 11 11 11 11 11 11 11 11 11 11 11 11 11 11 11 11 11 11 11 11 11 11 11 11 11 10 10 10 10 10 10 10 10 10
11 11 11 11 11 11 11 11 11 11 11 11 11 11 11 11 10 10 11 11 11 11 11 11 11 11 10 10 10 10 11 10 10 10 10 10 10 10 10 10 10 9 9
10 10 10 10 10 10 10 10 10 10 10 10 10 10 10 10 10 10 10 10 10 10 10 10 10 10 10 10 10 10 10 10 10 10 10 9 9 9 9 9 9 9 9
10 10 10 10 10 10 10 10 10 10 10 10 10 10 10 10 9 9 10 10 10 10 10 10 10 10 10 10 10 10 10 10 9 10 9 9 9 9 9 9 9 9 8
10 9 9 9 9 9 9 9 9 9 9 9 9 9 9 9 9 9 9 9 9 9 9 9 9 9 9 9 9 9 9 9 9 9 9 9 9 9 9 8 8 8 8
9 9 9 9 9 9 9 9 9 9 9 9 9 8 8 8 8 9 9 9 9 9 9 9 9 9 9 9 9 9 9 9 9 9 8 8 8 8 8 8 8 8 8
9 9 9 9 9 9 9 9 8 8 8 8 8 8 8 8 7 8 8 8 8 8 8 9 9 9 9 9 9 8 8 8 8 8 8 8 8 8 8 7 7 7 7
8 8 8 8 8 8 8 8 8 8 8 8 8 8 8 8 7 7 7 8 8 8 8 8 8 8 8 8 8 8 8 8 8 8 8 7 7 7 7 7 7 7 7
8 8 8 8 8 8 8 8 8 8 8 8 8 7 7 7 8 7 7 7 7 8 8 8 8 8 8 8 8 8 8 7 7 7 7 7 7 7 7 7 6 6 6
8 8 8 8 8 8 7 7 7 7 7 7 7 7 7 7 7 7 7 7 7 7 7 7 7 7 7 7 7 7 7 7 7 6 6 7 6 6 6 6 6 6 6
7 7 7 7 7 7 7 7 7 7 7 7 7 7 7 7 7 7 7 7 7 7 7 7 7 7 7 7 7 7 7 6 6 6 6 6 6 6 6 6 6 6 6
7 7 7 7 7 7 7 7 7 7 7 6 6 7 7 7 7 7 6 6 6 6 6 7 7 7 7 7 7 6 6 6 6 6 6 6 6 6 6 6 6 6 5
6 6 6 6 6 6 6 6 6 6 6 6 6 6 6 6 6 6 6 6 6 6 5 6 6 6 6 6 6 6 6 6 6 5 5 5 6 5 5 5 5 5 5
6 6 6 6 6 6 6 6 6 6 6 6 6 6 6 6 6 6 6 6 6 5 5 6 6 6 6 6 6 5 5 5 5 5 5 5 5 5 5 5 5 5 5
6 6 6 6 6 6 6 5 5 5 5 5 5 5 5 5 5 5 5 5 5 5 5 5 5 5 5 5 5 5 5 5 5 5 5 5 5 4 4 4 4 4 4
5 5 5 5 5 5 5 5 5 5 5 5 5 5 5 5 5 5 5 5 5 5 4 4 4 4 4 4 4 4 4 4 4 4 4 4 4 4 4 4 4 4 3
5 5 5 5 5 5 5 5 5 4 4 5 5 5 5 5 5 4 4 4 4 4 4 4 4 4 4 4 4 4 4 3 3 3 3 3 3 3 3 3 3 3 3
4 4 4 4 4 4 4 4 4 4 4 4 4 4 4 4 4 4 4 4 4 4 3 3 3 3 3 3 3 3 3 3 3 3 3 3 3 3 3 3 3 3 2
4 4 4 4 4 4 4 4 4 4 4 4 4 4 4 4 3 3 3 3 3 3 3 3 3 3 3 3 3 2 2 2 2 2 2 2 2 2 2 2 2 2 2
3 3 3 3 4 4 4 4 3 4 4 3 3 3 3 3 3 3 3 3 3 3 2 2 2 2 2 2 2 2 2 2 1 1 1 1 1 1 1 2 2 1 1
3 3 3 3 3 3 3 3 3 3 3 3 3 3 3 3 3 2 2 2 2 2 2 2 2 2 2 2 2 2 1 1 1 1 0 1 1 1 1 1 1 1 1
2 2 2 2 3 3 2 2 2 2 2 2 2 2 2 2 2 2 2 2 2 2 2 2 2 2 1 1 1 1 1 1 0 0 -0 -0 -0 0 0 0 0 0 0
2 2 2 2 2 2 2 2 2 2 2 2 2 2 2 2 2 1 1 1 1 1 1 1 1 1 1 1 0 0 0 -0 -0 -0 -1 -1 -1 -1 -1 -0 -0 -1 -1
1 1 1 1 1 1 1 1 1 1 1 1 1 1 1 1 1 1 1 1 1 1 1 1 1 0 0 0 -0 -0 -0 -1 -1 -1 -1 -1 -1 -2 -2 -1 -1 -1 -1
Wind_Speed
2 1 1 2 2 4 4 3 4 4 4 4 4 4 4 4 5 5 5 6 7 8 8 8 10 10 9 8 7 8 8 8 7 7 7 7 8 8 8 8 7 7 6
3 2 2 2 2 3 4 4 4 4 3 3 3 4 4 5 5 5 5 6 6 7 8 8 9 9 9 8 7 7 8 8 7 7 7 7 7 8 8 7 6 5 5
4 3 2 2 2 3 4 4 3 4 3 2 2 2 3 4 5 5 6 6 5 5 7 8 9 8 8 8 8 7 7 7 7 7 7 6 6 7 7 6 5 5 4
5 3 2 2 3 3 3 3 3 3 3 2 2 2 2 3 4 5 5 6 5 5 5 7 8 8 7 7 8 7 7 7 7 7 6 6 6 5 6 6 5 5 4
5 4 3 2 3 3 3 3 3 3 3 2 2 2 2 2 2 4 4 5 5 5 6 6 6 6 6 6 7 7 7 7 6 6 6 6 6 4 5 5 5 5 4
4 4 3 3 3 3 3 3 3 3 3 3 3 2 2 1 2 2 2 3 4 5 6 5 5 4 5 5 7 7 7 7 7 6 6 6 6 5 4 5 5 4 4
4 4 3 3 4 4 4 4 3 4 2 3 3 2 2 2 1 1 2 2 2 3 5 5 5 4 3 4 6 7 8 7 6 7 7 6 6 6 5 5 5 4 4
4 4 4 4 4 4 5 5 4 2 2 2 3 3 1 1 1 1 1 1 1 2 3 4 5 5 4 4 5 6 7 7 7 7 7 7 7 6 6 6 5 5 4
4 4 5 5 4 5 5 6 6 5 4 2 2 3 3 3 1 1 1 1 1 1 2 2 4 5 6 6 5 6 7 7 8 8 7 7 7 7 6 6 6 6 5
3 4 5 5 5 4 5 6 5 4 6 4 2 1 1 3 2 1 1 1 1 2 3 3 3 5 6 6 7 7 7 8 8 8 8 7 7 7 6 6 6 7 6
2 3 4 4 4 4 4 5 5 5 5 5 3 2 1 1 1 2 2 2 2 2 3 3 4 5 6 6 7 7 8 9 10 9 8 8 8 7 7 6 7 7 7
1 2 3 4 4 4 5 5 5 5 5 4 4 3 3 3 2 2 2 2 3 2 2 2 3 4 6 6 6 7 8 9 10 10 10 9 8 7 7 7 8 8 8
2 3 3 3 3 4 5 5 5 5 5 6 5 4 3 3 3 2 2 2 2 2 2 2 3 4 5 5 5 7 7 8 9 10 10 9 8 7 7 8 8 8 9
3 3 3 4 4 5 4 4 4 4 4 5 5 5 3 3 3 3 3 3 1 2 3 3 2 4 5 5 6 6 6 7 8 9 10 9 8 7 7 7 8 9 9
2 3 3 4 3 4 4 3 3 4 4 5 5 5 4 3 3 3 3 3 4 4 5 4 3 3 4 5 6 5 5 7 8 9 9 9 8 8 8 7 7 8 9
2 2 2 3 3 3 3 3 3 3 4 4 4 5 4 3 3 3 3 3 3 4 4 4 3 2 2 3 5 6 6 7 8 8 9 9 9 9 8 8 8 8 8
2 3 3 3 3 3 3 3 4 4 5 5 4 5 5 4 4 3 3 3 3 3 4 3 2 1 2 2 2 3 4 5 5 7 8 8 8 8 8 8 8 8 8
2 3 3 3 4 4 4 4 5 5 5 6 6 5 5 4 4 4 3 4 4 4 4 4 2 2 2 3 2 2 2 3 4 6 7 7 7 7 8 8 8 8 8
3 3 3 4 4 4 4 5 5 5 6 6 6 6 6 5 5 4 4 4 4 3 3 4 3 2 2 1 1 1 1 2 4 5 6 7 7 7 8 8 8 9 9
3 3 3 4 4 4 4 4 5 5 5 5 5 5 6 6 6 6 5 4 4 4 3 3 3 2 2 1 1 2 2 2 2 3 5 6 6 7 8 8 8 9 9
3 3 3 3 3 4 4 4 4 5 5 5 4 5 5 6 6 6 5 5 5 4 4 4 3 2 2 2 3 2 3 2 2 2 2 3 4 4 6 7 8 9 9
3 3 3 3 3 3 4 5 4 4 4 5 5 4 4 4 5 6 6 7 7 6 6 5 4 4 4 3 3 3 3 2 3 1 1 3 2 3 5 6 8 9 9
2 3 3 3 4 4 5 5 5 3 4 4 4 4 2 2 3 3 3 3 4 6 7 6 6 5 5 5 5 4 4 3 4 2 1 3 2 3 5 6 9 9 8
3 3 3 3 3 3 4 5 4 3 2 3 3 4 4 3 2 3 2 1 1 2 3 4 4 5 4 4 5 4 3 2 1 1 2 2 2 2 3 5 7 7 7
2 2 2 2 3 3 3 4 3 2 2 1 1 2 3 3 4 4 3 2 1 1 1 2 4 4 5 6 5 3 3 2 2 2 1 2 2 2 2 3 4 3 3
2 2 1 1 2 2 3 3 3 2 2 1 1 0 2 3 4 4 3 3 2 2 1 0 1 1 1 2 4 4 4 3 2 2 2 2 1 1 2 2 2 2 3
Wind_Direction
154 144 147 152 158 155 153 150 145 142 141 142 145 142 138 143 145 146 153 163 172 175 170 167 162 158 156 156 154 153 153 151 150 147 141 141 142 135 127 122 118 112 107
156 160 165 160 165 166 165 160 157 148 148 143 136 141 150 153 152 150 149 154 156 163 170 169 164 161 161 160 157 155 157 158 160 154 152 148 149 145 139 133 130 125 118
162 161 173 176 178 167 154 143 139 138 138 136 140 131 139 151 147 145 144 144 145 155 167 173 166 166 167 169 165 158 157 154 156 158 154 156 149 155 150 146 145 144 139
168 159 171 185 177 155 143 150 155 155 155 150 147 148 120 136 139 143 138 139 141 148 162 166 164 170 172 175 176 173 171 169 166 161 156 158 155 161 163 161 162 163 160
177 165 170 177 165 149 149 162 163 161 158 145 133 113 104 106 113 130 134 144 146 145 144 147 161 170 179 182 187 185 182 180 178 175 175 171 172 169 177 176 178 180 180
181 169 164 167 158 155 157 150 150 148 146 140 116 84 62 73 99 121 135 143 147 147 144 140 144 167 182 193 202 194 186 187 187 188 191 189 189 188 195 188 186 194 196
184 172 169 169 168 171 165 153 143 142 130 124 105 80 35 42 70 82 111 122 137 153 155 152 154 165 181 202 204 200 193 190 192 197 201 201 201 199 203 200 195 199 204
187 179 170 178 176 169 161 157 149 147 150 144 130 128 109 359 357 2 66 139 147 148 162 173 175 179 187 192 208 210 206 202 203 206 210 208 209 207 211 209 203 211 218
192 184 176 175 179 175 176 174 173 164 172 185 153 150 156 196 260 328 299 206 174 193 193 188 196 199 199 198 203 213 219 217 213 216 219 216 214 211 215 220 221 223 228
187 188 180 177 177 179 179 181 184 177 171 178 187 183 148 154 159 192 311 303 242 225 215 210 206 215 211 205 207 212 220 223 221 225 225 221 223 223 223 227 232 233 236
189 183 177 177 180 185 187 185 183 182 183 182 178 169 135 105 145 164 225 257 264 244 226 216 207 210 218 212 210 216 222 226 226 227 230 229 228 231 231 235 237 240 241
203 192 184 182 184 186 192 194 189 187 189 185 187 184 172 172 188 178 201 233 246 261 253 235 221 210 213 211 217 224 225 227 231 232 233 234 235 240 242 244 243 246 245
222 211 199 197 194 192 192 190 191 192 192 190 196 205 202 192 178 174 175 211 246 272 264 255 234 218 210 209 218 227 228 228 232 235 235 236 238 244 250 251 251 252 250
216 210 201 200 195 189 188 185 197 199 196 198 205 203 208 207 185 180 180 179 212 271 265 251 246 218 214 215 223 227 228 234 235 238 240 239 240 243 251 255 257 258 259
216 203 202 202 197 189 186 182 197 205 200 204 207 206 212 216 201 191 182 182 182 215 244 243 237 226 217 221 229 224 227 235 240 244 244 242 239 243 251 256 258 259 261
208 202 212 209 207 200 195 193 198 207 208 211 205 201 212 215 205 193 191 198 196 199 228 235 237 252 214 230 235 223 227 238 240 242 242 240 240 242 248 256 263 264 262
203 217 220 212 208 208 203 199 204 199 207 213 211 206 214 210 206 198 196 199 197 187 218 254 261 261 215 218 236 227 232 233 238 247 247 241 242 244 246 253 260 264 264
208 217 216 215 213 212 205 205 209 206 206 210 213 212 217 211 211 204 202 208 206 195 199 224 242 238 236 221 212 226 251 250 246 253 254 252 249 250 251 252 256 260 265
211 216 214 218 217 215 212 214 209 212 215 216 213 213 216 207 216 212 210 212 207 201 197 202 221 229 245 231 230 261 257 262 262 260 259 258 258 259 258 259 259 258 261
213 219 223 227 224 219 220 221 215 216 219 218 214 213 215 211 215 213 213 212 202 194 191 194 206 214 226 223 187 235 275 275 283 281 263 261 262 263 262 265 261 257 258
230 224 223 230 228 220 222 218 217 214 211 213 217 217 217 218 222 220 215 208 198 194 191 197 204 204 211 198 211 214 246 273 289 265 265 271 271 268 266 264 261 255 260
237 226 220 219 226 233 234 224 217 211 207 208 213 217 216 216 225 228 225 216 205 200 201 206 211 212 222 216 205 205 215 241 275 239 219 279 259 265 267 262 265 261 262
232 228 225 217 221 233 230 220 215 206 208 211 207 204 216 223 219 208 220 223 223 221 217 212 211 215 212 208 193 206 216 229 247 233 222 274 273 269 271 269 273 264 265
229 233 231 224 223 235 228 218 206 199 198 205 204 200 197 199 203 181 169 165 216 245 231 219 216 217 213 202 198 204 208 214 264 277 203 257 274 271 293 284 277 264 268
228 236 228 219 223 234 219 202 186 174 170 179 194 191 190 194 200 181 167 168 201 293 297 242 237 227 223 217 197 164 170 190 264 270 223 217 264 295 303 295 289 276 273
212 214 216 212 212 226 207 186 164 146 148 138 102 160 202 196 194 186 180 178 200 232 195 49 42 13 217 210 209 195 189 199 235 258 219 189 228 303 304 303 299 285 292
Height
1517 1518 1519 1520 1522 1523 1524 1525 1526 1528 1530 1532 1534 1535 1536 1538 1539 1540 1541 1543 1544 1545 1546 1546 1547 1549 1549 1550 1551 1552 1553 1553 1554 1554 1554 1554 1555 1555 1555 1555 1555 1555 1555
1515 1516 1517 1518 1519 1521 1522 1523 1525 1526 1528 1530 1532 1533 1535 1536 1537 1538 1540 1541 1542 1543 1544 1545 1546 1547 1548 1549 1550 1550 1551 1552 1552 1553 1553 1553 1553 1553 1554 1554 1554 1554 1554
1513 1514 1515 1516 1517 1518 1520 1521 1523 1524 1526 1528 1529 1531 1532 1534 1535 1536 1538 1539 1540 1541 1542 1543 1545 1546 1547 1547 1548 1549 1549 1550 1551 1551 1551 1552 1552 1552 1552 1552 1553 1553 1553
1510 1511 1512 1513 1515 1516 1517 1518 1520 1522 1524 1525 1527 1529 1530 1531 1533 1534 1535 1536 1537 1539 1540 1541 1543 1544 1545 1546 1547 1547 1548 1548 1549 1549 1550 1550 1551 1551 1551 1551 1551 1552 1552
1508 1509 1510 1511 1512 1513 1514 1516 1517 1519 1521 1523 1525 1526 1528 1529 1530 1531 1533 1534 1535 1536 1537 1539 1540 1541 1542 1544 1544 1545 1546 1546 1547 1548 1548 1549 1549 1549 1549 1550 1550 1550 1550
1505 1506 1507 1508 1509 1511 1512 1513 1515 1517 1518 1520 1522 1523 1525 1527 1528 1529 1530 1531 1533 1534 1535 1536 1537 1539 1540 1541 1542 1543 1543 1544 1545 1545 1546 1547 1547 1547 1548 1548 1548 1548 1548
1502 1503 1504 1505 1507 1508 1509 1511 1512 1514 1516 1518 1519 1521 1523 1524 1525 1526 1528 1529 1530 1531 1532 1533 1535 1536 1537 1538 1540 1540 1541 1542 1542 1543 1544 1544 1545 1545 1546 1546 1546 1546 1547
1499 1500 1501 1502 1504 1505 1506 1508 1510 1511 1514 1515 1517 1518 1520 1522 1522 1523 1524 1525 1527 1528 1529 1531 1532 1533 1534 1535 1536 1538 1539 1539 1540 1540 1541 1542 1542 1543 1543 1543 1543 1544 1544
1496 1497 1499 1500 1501 1502 1503 1505 1507 1509 1510 1512 1514 1516 1517 1517 1519 1520 1521 1523 1524 1525 1526 1527 1528 1530 1531 1532 1533 1534 1535 1536 1537 1538 1538 1539 1539 1540 1540 1541 1541 1541 1541
1493 1494 1496 1497 1498 1499 1500 1502 1504 1506 1508 1509 1511 1513 1515 1515 1517 1517 1518 1519 1521 1522 1523 1524 1525 1526 1528 1529 1530 1531 1532 1533 1534 1534 1535 1536 1536 1537 1537 1538 1538 1538 1538
1490 1491 1493 1494 1495 1496 1498 1499 1501 1502 1504 1506 1507 1509 1511 1512 1513 1514 1515 1516 1517 1518 1520 1521 1522 1523 1524 1525 1526 1527 1528 1529 1530 1531 1531 1532 1532 1533 1534 1534 1535 1535 1535
1487 1488 1489 1491 1492 1493 1495 1496 1497 1499 1500 1502 1504 1506 1507 1508 1510 1511 1512 1512 1513 1514 1516 1517 1518 1519 1520 1521 1522 1523 1524 1524 1525 1526 1527 1528 1528 1529 1529 1530 1530 1531 1531
1484 1485 1486 1487 1489 1490 1492 1493 1494 1495 1497 1499 1501 1502 1504 1505 1507 1508 1509 1510 1510 1510 1511 1512 1514 1515 1516 1517 1517 1518 1519 1520 1521 1522 1522 1523 1524 1524 1525 1525 1526 1526 1526
1481 1482 1483 1484 1485 1487 1488 1490 1491 1492 1494 1495 1497 1499 1500 1502 1503 1504 1506 1507 1507 1507 1507 1508 1510 1511 1512 1512 1513 1514 1515 1516 1517 1517 1518 1519 1519 1520 1520 1521 1521 1522 1522
1478 1479 1480 1481 1482 1484 1485 1486 1487 1488 1490 1491 1493 1494 1496 1497 1499 1500 1502 1503 1504 1503 1503 1503 1505 1506 1507 1508 1509 1510 1511 1512 1512 1513 1514 1514 1515 1515 1516 1516 1516 1517 1517
1475 1476 1477 1478 1479 1480 1481 1482 1483 1484 1486 1487 1488 1490 1491 1492 1494 1495 1497 1498 1499 1500 1499 1499 1500 1501 1503 1504 1505 1505 1506 1507 1508 1508 1509 1509 1510 1510 1511 1511 1511 1511 1512
1472 1472 1473 1474 1475 1476 1477 1478 1479 1480 1481 1483 1484 1485 1486 1488 1489 1490 1492 1493 1494 1495 1495 1495 1496 1497 1498 1499 1500 1500 1501 1502 1503 1504 1504 1504 1505 1505 1505 1506 1506 1506 1506
1468 1469 1470 1470 1471 1472 1473 1474 1474 1475 1477 1478 1479 1481 1481 1483 1484 1485 1487 1487 1489 1490 1491 1490 1491 1492 1493 1494 1495 1495 1496 1497 1498 1499 1499 1499 1499 1500 1500 1500 1500 1500 1500
1464 1465 1466 1466 1467 1468 1468 1469 1470 1472 1473 1474 1475 1476 1477 1479 1479 1480 1482 1483 1484 1485 1486 1486 1486 1488 1489 1490 1491 1491 1492 1492 1493 1494 1494 1494 1494 1494 1495 1494 1494 1495 1495
1461 1461 1462 1462 1463 1464 1464 1465 1466 1467 1468 1469 1471 1472 1473 1474 1475 1476 1477 1478 1479 1480 1481 1482 1482 1483 1484 1485 1486 1487 1487 1488 1488 1489 1489 1489 1489 1489 1489 1489 1489 1490 1489
1457 1457 1458 1458 1459 1459 1460 1461 1462 1463 1464 1465 1466 1468 1469 1469 1471 1472 1473 1473 1474 1475 1476 1477 1477 1478 1479 1480 1481 1482 1482 1483 1483 1484 1484 1484 1484 1484 1484 1484 1484 1484 1484
1453 1453 1454 1454 1454 1455 1456 1457 1458 1459 1460 1461 1462 1463 1464 1465 1466 1468 1469 1469 1470 1471 1471 1472 1472 1473 1474 1476 1477 1477 1478 1478 1478 1479 1479 1479 1479 1478 1478 1478 1478 1478 1478
1449 1449 1450 1450 1450 1451 1452 1453 1454 1455 1456 1457 1458 1459 1460 1461 1462 1463 1464 1465 1466 1467 1468 1469 1468 1469 1470 1471 1472 1473 1474 1474 1474 1474 1475 1473 1474 1473 1473 1473 1473 1473 1473
1445 1445 1446 1446 1447 1447 1448 1449 1450 1451 1452 1453 1454 1455 1456 1457 1458 1459 1459 1460 1461 1462 1463 1464 1465 1465 1467 1468 1469 1469 1469 1470 1470 1470 1471 1469 1469 1469 1468 1468 1468 1468 1468
1441 1442 1442 1443 1443 1444 1445 1446 1447 1447 1448 1449 1450 1451 1452 1453 1454 1455 1456 1456 1457 1458 1459 1460 1461 1461 1462 1463 1464 1465 1465 1465 1465 1465 1466 1466 1465 1464 1464 1463 1463 1463 1463
1438 1439 1439 1440 1440 1441 1442 1442 1443 1444 1445 1446 1447 1448 1449 1450 1451 1451 1452 1453 1453 1454 1455 1456 1457 1457 1458 1459 1460 1461 1461 1462 1461 1461 1461 1462 1461 1461 1459 1458 1459 1459 1458